Regional Weather Roundup
Issued by NWS Midland/Odessa, TX

Skip options and go directly to product.
Home | Oldest Version | Next Version | Current Version | All | Text Only | Save Text | Print | Product List | Glossary On

Skip product version selection by date and time.   
743
ASUS44 KMAF 111201
RWRMAF
MIDLAND AREA WEATHER ROUNDUP
NATIONAL WEATHER SERVICE MIDLAND TX
600 AM CST THU FEB 11 2016

...IN SOUTHWEST TEXAS AND SOUTHEAST NEW MEXICO...

CITY           SKY/WX    TMP DP  RH WIND       PRES   REMARKS
ALPINE         CLOUDY    49  14  24 SW5       30.28R
ANDREWS        FAIR      45  19  35 W8        30.12R
ARTESIA        CLOUDY    34  18  51 CALM      30.16R
BIG SPRING     CLOUDY    37  22  55 S5        30.14R WCI  33
CARLSBAD       CLOUDY    38  20  48 NE5       30.14R WCI  34
DRYDEN           N/A     47  20  34 W9        30.13R
FORT STOCKTON  CLEAR     49  20  31 SW15      30.15R
GUAD PASS      CLEAR     48  14  25 SW10      30.24R
HOBBS          CLOUDY    37  18  44 W9        30.14R WCI  31
MARFA          CLOUDY    26  12  55 CALM      30.26R
MIDLAND AIRPK  CLOUDY    49  22  34 W5        30.12S
MIDLAND INTL   CLOUDY    46  23  40 SW8       30.11S
ODESSA         CLOUDY    42  22  44 SW6       30.13R WCI  38
PECOS          CLOUDY    38  19  45 NW5       30.15R WCI  34
PRESIDIO       FAIR      45  15  30 N7        30.20R
SEMINOLE       CLOUDY    34  20  57 W3        30.13R
SNYDER           N/A     43  24  47 SW6       30.11R WCI  39
WINK           CLOUDY    30  19  63 N6        30.12S WCI  24
$$
...OTHER STATIONS IN TEXAS...

CITY           SKY/WX    TMP DP  RH WIND       PRES   REMARKS
ABILENE        CLEAR     55  26  32 SW14      30.07S
AMARILLO       CLOUDY    37  20  50 N9        30.17R WCI  30
AUSTIN         CLEAR     42  33  70 CALM      30.14S
BROWNSVILLE    CLEAR     56  52  86 S8        30.20F
CORPUS CHRISTI CLEAR     43  39  86 S8        30.18S WCI  38
DALLAS FTW     CLEAR     45  30  55 NW3       30.05R
DEL RIO        CLEAR     45  27  49 CALM      30.13R
EL PASO        MOCLDY    34  16  47 CALM      30.23R
HOUSTON INT    CLEAR     57  49  74 SW10G17   30.17S
LUBBOCK        CLOUDY    31  18  58 NW7       30.09R WCI  24
SAN ANGELO     CLEAR     48  26  42 SW9       30.12R
SAN ANTONIO    CLEAR     44  33  65 CALM      30.17R
WACO           CLEAR     39  32  76 SE7       30.09R WCI  34
WICHITA FALLS  NOT AVBL
$$
...OTHER LOCATIONS IN NEW MEXICO...

CITY           SKY/WX    TMP DP  RH WIND       PRES   REMARKS
ALAMAGORDO     CLOUDY    37  14  38 N3        30.24S
ALBUQUERQUE    CLOUDY    38  22  52 NE9       30.32R WCI  31
CANNON AFB     NOT AVBL
CLOVIS         CLEAR     39  14  35 N17       30.17R WCI  30
HOLLOMAN AFB   NOT AVBL
ROSWELL        PTCLDY    33  18  53 CALM      30.17R
RUIDOSO          N/A     46   7  19 NW3       30.31R
SANTA FE       CLOUDY    34  19  54 N10       30.31R WCI  26
TRUTH OR CONSE PTCLDY    38  14  37 N5        30.28S WCI  34
TUCUMCARI      CLOUDY    33  12  41 NW3       30.18S
$$

USA.gov is the U.S. government's official web portal to all federal, state and local government web resources and services.